Location: Branche des Alpilles
(43.6087°N, 4.6976°E)
Time: 08:25:14
(UTC+00:00)

BlueWalker 3 - Visible Passes

Search period start: 08 December 2022 00:00
Search period end: 18 December 2022 00:00
Orbit: 501 x 518 km, 53.2° (Epoch: 07 December)

Date Brightness Start Highest point End Pass type
(mag) Time Alt. Az. Time Alt. Az. Time Alt. Az.
08 Dec 2.5 17:26:47 10° NW 17:30:30 41° NNE 17:31:51 30° ENE visible
08 Dec 4.7 19:05:33 10° WNW 19:06:41 18° WNW 19:06:41 18° WNW visible
09 Dec 2.4 17:08:21 10° NW 17:12:06 42° NNE 17:14:45 17° E visible
09 Dec 3.9 18:47:09 10° WNW 18:49:37 29° W 18:49:37 29° W visible
10 Dec 2.3 16:49:56 10° NW 16:53:42 44° NNE 16:57:26 10° ESE visible
10 Dec 3.4 18:28:46 10° WNW 18:32:17 32° SW 18:32:47 31° SSW visible
11 Dec 2.3 16:31:30 10° NW 16:35:18 46° NNE 16:39:03 10° ESE visible
11 Dec 3.7 18:10:23 10° WNW 18:13:50 30° SW 18:16:19 16° S visible
12 Dec 3.9 17:52:00 10° WNW 17:55:24 28° SW 17:58:45 10° SSE visible
13 Dec 4.2 17:33:37 10° WNW 17:36:56 27° SW 17:40:14 10° S visible
14 Dec 4.4 17:15:14 10° WNW 17:18:29 25° SW 17:21:42 10° S visible
15 Dec 4.6 16:56:51 10° WNW 17:00:01 24° SW 17:03:09 10° S visible
16 Dec 4.9 16:38:29 10° W 16:41:32 22° SW 16:44:35 10° S visible
